sat.trackr.live / text

‹ back to catalog

STARLINK-31637

NORAD 59258 · 2024-050E

PAYLOAD ACTIVE UNKNOWN

§ Identity

Operator
Country
US
Launch date
2024-03-19
Launch site
AFWTR
Launch vehicle
Mass (kg)
RCS (m²)

Purposes: comms

External: N2YO · Heavens-Above · Gunter

§ Orbital elements

Epoch: 2026-09-20T13:34:10.714656Z

Period
93.85 min
Inclination
53.1608°
Eccentricity
0.0001233
Mean motion
15.34397802 rev/d
Perigee alt
461.9 km
Apogee alt
463.6 km
Semi-major
6,840.8 km
B*
2.9640e-5
RAAN
353.0750°
Arg perigee
90.7721°
Mean anomaly
269.3423°
Rev number
14,042

§ Raw data

STARLINK-316371 59258U 24050E   26263.56540179  .00000625  00000+0  29640-4 0  99932 59258  53.1608 353.0750 0001233  90.7721 269.3423 15.34397802140424

JSON: /api/v1/satellites/59258 · /tle

For live sub-satellite position, see the globe view (requires WebGL).

§ Visibility from observer

Set your observer location to see the next 7 days of passes ≥ 10°. The values pass through the URL so the page stays shareable.

No JS? Fill the form by hand. The geolocation button needs JavaScript.